Tracking 21470 objects as of 23-Sep-2020
HD Live streaming from Space Station
objects crossing your sky now

IRIDIUM 33 DEB

Track IRIDIUM 33 DEB now!
10-day predictions


NORAD ID: 34540
Int'l Code: 1997-051JH
Perigee: 704.6 km
Apogee: 743.4 km
Inclination: 86.3 °
Period: 99.1 minutes
Semi major axis: 7095 km
RCS: 0.029 m2 (small)
Launch date: September 14, 1997
Source: United States (US)
Launch site: TYURATAM MISSILE AND SPACE COMPLEX (TTMTR)

Note: This is SATELLITE DEBRIS
aabbcc
Your satellite tracking list
Your tracking list is empty




NASA's NSSDC Master Catalog

Two Line Element Set (TLE):
1 34540U 97051JH  20266.93419566 +.00000554 +00000-0 +12919-3 0  9996
2 34540 086.3195 074.4613 0027316 156.6353 333.0769 14.52688691612193
Source of the keplerian elements: AFSPC